Chennai, India

4:19 AM IST on September 22, 2017 (GMT +0530)
Chennai International

Weather History for VOMM - August, 2013

Change the Weather History Date:

Thursday, August 29, 2013

  Actual Average Record
Temperature  
Mean Temperature 87 °F -  
Max Temperature 97 °F 90 °F 97 °F (2013)
Min Temperature 77 °F 77 °F 75 °F (1999)
Cooling Degree Days 22    
Growing Degree Days 37 (Base 50)    
Moisture  
Dew Point 75 °F    
Average Humidity 70    
Maximum Humidity 94    
Minimum Humidity 38    
Precipitation  
Precipitation 0.00 in 0.21 in - ()
Sea Level Pressure  
Sea Level Pressure 29.78 in    
Wind  
Wind Speed 4 mph ()    
Max Wind Speed 13 mph    
Max Gust Speed -    
Visibility 3.6 miles    
Events      
Averages and records for this station are not official NWS values.
T = Trace of Precipitation, MM = Missing Value Source: Averaged Metar Reports

Daily Weather History Graph

Daily Weather History Graph

Search for Another Location

Airport or City:

Trip Planner

Search our weather history database for the weather conditions in past years. The results will help you decide how hot, cold, wet, or windy it might be!

Date:

Astronomy

Aug. 29, 2013 Rise Set
Actual Time 5:58 AM IST 6:22 PM IST
Civil Twilight 5:36 AM IST 6:43 PM IST
Nautical Twilight 5:11 AM IST 7:08 PM IST
Astronomical Twilight 4:46 AM IST 7:34 PM IST
Moon No Moon Rise 12:58 PM IST (8/29)
Length of Visible Light 13h 07m
Length of Day
12h 24m
Last Quarter, 42% of the Moon is Illuminated
Aug 29
Last Quarter
Sep 5
New
Sep 12
First Quarter
Sep 19
Full
Sep 27
Last Quarter

Hourly Weather History & Observations

Time (IST) Temp. Heat Index Dew Point Humidity Pressure Visibility Wind Dir Wind Speed Gust Speed Precip Events Conditions
12:10 AM 78.8 °F - 73.4 °F 83% 29.77 in 2.5 mi Calm Calm - N/A   Haze
12:40 AM 78.8 °F - 73.4 °F 83% 29.77 in 2.5 mi Calm Calm - N/A   Haze
1:10 AM 78.8 °F - 73.4 °F 83% 29.77 in 2.5 mi SW 3.5 mph - N/A   Haze
1:40 AM 78.8 °F - 73.4 °F 83% 29.77 in 2.5 mi SW 4.6 mph - N/A   Haze
2:10 AM 78.8 °F - 73.4 °F 83% 29.77 in 2.5 mi West 6.9 mph - N/A   Haze
2:30 AM 81 °F - 75 °F 77% 29.77 in 2 mi WNW 2.3 mph - -   Partly Cloudy
2:40 AM 78.8 °F - 73.4 °F 83% 29.77 in 2.5 mi WSW 5.8 mph - N/A   Haze
3:10 AM 78.8 °F - 73.4 °F 83% 29.77 in 2.5 mi SW 4.6 mph - N/A   Haze
3:40 AM 78.8 °F - 73.4 °F 83% 29.77 in 2.5 mi WSW 4.6 mph - N/A   Haze
4:10 AM 78.8 °F - 75.2 °F 89% 29.77 in 2.5 mi SW 4.6 mph - N/A   Haze
4:40 AM 78.8 °F - 75.2 °F 89% 29.80 in 2.5 mi SSW 3.5 mph - N/A   Haze
5:10 AM 77.0 °F - 75.2 °F 94% 29.80 in 2.5 mi SSW 4.6 mph - N/A   Haze
5:30 AM 78 °F - 74 °F 83% 29.80 in 2 mi WSW 3.5 mph - -   Partly Cloudy
5:40 AM 78.8 °F - 73.4 °F 83% 29.80 in 2.5 mi SW 4.6 mph - N/A   Haze
6:10 AM 78.8 °F - 73.4 °F 83% 29.83 in 2.5 mi WSW 9.2 mph - N/A   Haze
6:40 AM 78.8 °F - 73.4 °F 83% 29.83 in 2.5 mi West 8.1 mph - N/A   Haze
7:10 AM 80.6 °F 84.6 °F 71.6 °F 74% 29.83 in 2.5 mi West 8.1 mph - N/A   Haze
8:10 AM 80.6 °F 85.4 °F 73.4 °F 79% 29.86 in 3.1 mi West 5.8 mph - N/A   Haze
8:40 AM 82.4 °F 89.5 °F 75.2 °F 79% 29.86 in 3.1 mi West 5.8 mph - N/A   Haze
9:10 AM 84.2 °F 92.3 °F 75.2 °F 74% 29.83 in 3.7 mi West 6.9 mph - N/A   Scattered Clouds
9:40 AM 86.0 °F 95.1 °F 75.2 °F 70% 29.83 in 4.3 mi WNW 9.2 mph - N/A   Scattered Clouds
10:10 AM 87.8 °F 97.6 °F 75.2 °F 66% 29.83 in 5.0 mi West 9.2 mph - N/A   Partly Cloudy
11:10 AM 91.4 °F 105.1 °F 77.0 °F 63% 29.80 in 5.0 mi West 8.1 mph - N/A   Unknown
11:30 AM 91 °F - 77 °F 55% 29.81 in 6 mi WNW 3.5 mph - -   Scattered Clouds
11:40 AM 93.2 °F 105.0 °F 75.2 °F 56% 29.80 in 5.0 mi WSW 11.5 mph - N/A   Partly Cloudy
12:10 PM 91.4 °F 102.5 °F 75.2 °F 59% 29.77 in 5.0 mi West 9.2 mph - N/A   Partly Cloudy
12:40 PM 93.2 °F 102.4 °F 73.4 °F 52% 29.74 in 6.2 mi WSW 6.9 mph - N/A   Partly Cloudy
1:10 PM 93.2 °F 102.4 °F 73.4 °F 52% 29.74 in 6.2 mi SW 5.8 mph - N/A   Partly Cloudy
1:40 PM 93.2 °F 102.4 °F 73.4 °F 52% 29.71 in 6.2 mi WNW 6.9 mph - N/A   Partly Cloudy
2:10 PM 93.2 °F 102.4 °F 73.4 °F 52% 29.71 in 6.2 mi SW 6.9 mph - N/A   Partly Cloudy
2:30 PM 95 °F - 72 °F 38% 29.74 in 6 mi NW 2.3 mph - -   Partly Cloudy
2:40 PM 95.0 °F 103.2 °F 71.6 °F 47% 29.71 in 6.2 mi WNW 5.8 mph - N/A   Partly Cloudy
3:10 PM 95.0 °F 104.5 °F 73.4 °F 49% 29.71 in 6.2 mi Variable 3.5 mph - N/A   Scattered Clouds
3:40 PM 95.0 °F 103.2 °F 71.6 °F 47% 29.68 in 5.0 mi ESE 6.9 mph - N/A   Partly Cloudy
4:10 PM 93.2 °F 102.4 °F 73.4 °F 52% 29.68 in 4.3 mi SE 8.1 mph - N/A   Partly Cloudy
4:40 PM 91.4 °F 102.5 °F 75.2 °F 59% 29.71 in 3.7 mi ESE 12.7 mph - N/A   Scattered Clouds
5:30 PM 89 °F - 74 °F 53% 29.73 in 2 mi SE 4.6 mph - -   Partly Cloudy
6:10 PM 86.0 °F 95.1 °F 75.2 °F 70% 29.74 in 2.5 mi ENE 3.5 mph - N/A   Light Drizzle
6:40 PM 86.0 °F 96.9 °F 77.0 °F 74% 29.74 in 2.5 mi ENE 3.5 mph - N/A   Light Drizzle
7:10 PM 86.0 °F 95.1 °F 75.2 °F 70% 29.74 in 2.5 mi East 3.5 mph - N/A   Haze
7:40 PM 87.8 °F 99.7 °F 77.0 °F 70% 29.77 in 2.5 mi East 3.5 mph - N/A   Haze
8:10 PM 87.8 °F 99.7 °F 77.0 °F 70% 29.80 in 2.5 mi SE 5.8 mph - N/A   Haze
8:40 PM 87.8 °F 99.7 °F 77.0 °F 70% 29.80 in 3.7 mi SE 3.5 mph - N/A   Mostly Cloudy
9:10 PM 86.0 °F 96.9 °F 77.0 °F 74% 29.80 in 3.7 mi SSE 4.6 mph - N/A   Mostly Cloudy
9:40 PM 86.0 °F 96.9 °F 77.0 °F 74% 29.80 in 3.7 mi South 4.6 mph - N/A   Mostly Cloudy
10:10 PM 86.0 °F 96.9 °F 77.0 °F 74% 29.83 in 3.7 mi SSE 3.5 mph - N/A   Mostly Cloudy
10:40 PM 86.0 °F 96.9 °F 77.0 °F 74% 29.83 in 3.7 mi South 3.5 mph - N/A   Mostly Cloudy
11:10 PM 84.2 °F 92.3 °F 75.2 °F 74% 29.83 in 3.7 mi South 5.8 mph - N/A   Mostly Cloudy
11:30 PM 85 °F - 78 °F 73% 29.83 in 2 mi Calm Calm - -   Mostly Cloudy
11:40 PM 84.2 °F 94.1 °F 77.0 °F 79% 29.83 in 3.7 mi SW 5.8 mph - N/A   Mostly Cloudy